Weather History for HEMA - December, 2013

Change the Weather History Date:

Sunday, December 29, 2013

  Actual Average Record
Temperature  
Mean Temperature 68 °F -  
Max Temperature 75 °F - - ()
Min Temperature 60 °F - - ()
Cooling Degree Days 2    
Growing Degree Days 18 (Base 50)    
Moisture  
Dew Point 33 °F    
Average Humidity 33    
Maximum Humidity 88    
Minimum Humidity 12    
Precipitation  
Precipitation 0.00 in - - ()
Sea Level Pressure  
Sea Level Pressure 29.97 in    
Wind  
Wind Speed 9 mph ()    
Max Wind Speed 21 mph    
Max Gust Speed -    
Visibility 5.2 miles    
Events      
T = Trace of Precipitation, MM = Missing Value Source: Averaged Metar Reports

Daily Weather History Graph

Daily Weather History Graph

Search for Another Location

Airport or City:

Trip Planner

Search our weather history database for the weather conditions in past years. The results will help you decide how hot, cold, wet, or windy it might be!

Date:

Astronomy

Dec. 29, 2013 Rise Set
Actual Time 6:26 AM EET 5:00 PM EET
Civil Twilight 6:01 AM EET 5:25 PM EET
Nautical Twilight 5:33 AM EET 5:54 PM EET
Astronomical Twilight 5:05 AM EET 6:22 PM EET
Moon 2:57 AM EET (12/29) 2:13 PM EET (12/29)
Length of Visible Light 11h 24m
Length of Day
10h 33m
Waning Crescent, 13% of the Moon is Illuminated
Dec 29
Waning Crescent
Jan 1
New
Jan 8
First Quarter
Jan 16
Full
Jan 24
Last Quarter

Hourly Weather History & Observations

Time (EET) Temp. Dew Point Humidity Pressure Visibility Wind Dir Wind Speed Gust Speed Precip Events Conditions
12:00 AM 68.0 °F 64.4 °F 88% 29.92 in 5.0 mi WSW 4.6 mph - N/A   Unknown
1:00 AM 68.0 °F 64.4 °F 88% 29.92 in 5.0 mi NW 9.2 mph - N/A   Unknown
2:00 AM 66.2 °F 62.6 °F 88% 29.92 in 5.0 mi WNW 8.1 mph - N/A   Unknown
3:00 AM 64.4 °F 51.8 °F 64% 29.92 in 5.0 mi West 4.6 mph - N/A   Unknown
4:00 AM 68.0 °F 51.8 °F 56% 29.92 in 5.0 mi WSW 9.2 mph - N/A   Unknown
5:00 AM 62.6 °F 35.6 °F 37% 29.92 in - WNW 13.8 mph - N/A   Clear
6:00 AM 64.4 °F 15.8 °F 15% 29.95 in - NW 13.8 mph - N/A   Clear
7:00 AM 62.6 °F 30.2 °F 30% 29.95 in 6.2 mi NW 11.5 mph - N/A   Partly Cloudy
8:00 AM 66.2 °F 30.2 °F 26% 29.98 in - NNW 5.8 mph - N/A   Clear
9:00 AM 69.8 °F 30.2 °F 23% 30.01 in - NNW 6.9 mph - N/A   Clear
10:00 AM 71.6 °F 32.0 °F 23% 30.01 in - NNW 8.1 mph - N/A   Clear
11:00 AM 73.4 °F 35.6 °F 25% 29.98 in - North 5.8 mph - N/A   Clear
12:00 PM 73.4 °F 33.8 °F 23% 29.98 in - NW 15.0 mph - N/A   Clear
1:00 PM 75.2 °F 28.4 °F 18% 29.95 in - NW 17.3 mph - N/A   Clear
2:00 PM 75.2 °F 26.6 °F 17% 29.95 in - WNW 20.7 mph - N/A   Clear
3:00 PM 75.2 °F 44.6 °F 34% 29.95 in - NW 19.6 mph - N/A   Clear
4:00 PM 73.4 °F 19.4 °F 13% 29.95 in - WNW 13.8 mph - N/A   Clear
5:00 PM 71.6 °F 15.8 °F 12% 29.95 in - WNW 10.4 mph - N/A   Clear
6:00 PM 68.0 °F 15.8 °F 13% 29.98 in - NW 10.4 mph - N/A   Clear
7:00 PM 64.4 °F 15.8 °F 15% 30.01 in - WNW 8.1 mph - N/A   Clear
8:00 PM 62.6 °F 19.4 °F 19% 30.04 in - West 10.4 mph - N/A   Clear
9:00 PM 60.8 °F 21.2 °F 22% 30.04 in - WNW 8.1 mph - N/A   Clear
10:00 PM 60.8 °F 24.8 °F 25% 30.04 in - West 11.5 mph - N/A   Clear
11:00 PM 60.8 °F 26.6 °F 27% 30.04 in - West 12.7 mph - N/A   Clear